Regional Weather Roundup
Issued by NWS

Home | Current Version | Previous Version | Graphics & Text | Print | Product List | Glossary Off
Versions: 1 2 3 4 5 6 7 8 9 10 11 12 13 14 15 16 17 18 19 20 21 22 23 24 25 26 27 28 29 30 31 32 33 34 35 36 37 38 39 40 41 42 43 44 45 46 47 48 49 50

000
ASUS43 KTOP 060159
RWRKS

WEATHER ROUNDUP FOR KANSAS
NATIONAL WEATHER SERVICE GOODLAND KS
800 PM CST MON DEC 05 2016

NOTE:  "FAIR" INDICATES FEW OR NO CLOUDS BELOW 12,000 FEET WITH NO
SIGNIFICANT WEATHER AND/OR OBSTRUCTIONS TO VISIBILITY.

KSZ001>006-013>018-027>032-041>047-060300-
NORTHWEST KANSAS

CITY           SKY/WX    TMP DP  RH WIND       PRES   REMARKS
GOODLAND       PTCLDY    30  15  53 N15       29.84R WCI  19
HAYS           MOCLDY    36  30  79 NW8       29.72R
HILL CITY      MOCLDY    45  23  42 N16G23    29.76R
RUSSELL        CLEAR     40  33  76 NW5       29.69R
$$

KSZ061>065-074>080-084>089-060300-
SOUTHWEST KANSAS

CITY           SKY/WX    TMP DP  RH WIND       PRES   REMARKS
DODGE CITY     CLEAR     39  29  67 N12       29.69R WCI  32
ELKHART          N/A     46  19  34 NW17        N/A
GARDEN CITY    CLEAR     43  22  43 N28G37    29.71R
GREAT BEND     CLEAR     38  33  82 CALM      29.70R
LIBERAL        CLEAR     37  21  52 CALM      29.62R
$$

KSZ066>073-081>083-090>101-060300-
SOUTHEAST KANSAS

CITY           SKY/WX    TMP DP  RH WIND       PRES   REMARKS
CHANUTE        CLEAR     36  35  96 E5        29.72F
COFFEYVILLE    CLEAR     33  33 100 CALM      29.74S
HUTCHINSON     CLEAR     39  34  82 CALM      29.70R
MEDICINE LODGE   N/A     39  34  82 E8        29.67R
NEWTON         CLEAR     39  33  79 SE7       29.70S
PARSONS        CLEAR     33  31  92 CALM      29.74F
WICHITA INTL   CLEAR     39  36  89 S7        29.69R
WICHITA JABRA  CLEAR     38  36  92 SE5       29.69S
WINFIELD       CLEAR     39  36  89 E5        29.71S
$$

KSZ007>012-019>026-033>040-048>060-102>105-060300-
NORTHEAST KANSAS

CITY           SKY/WX    TMP DP  RH WIND       PRES   REMARKS
CONCORDIA      CLEAR     41  34  76 SW10      29.69R
EMPORIA        CLEAR     36  35  96 SE8       29.71S
LAWRENCE       CLEAR     36  32  85 E3        29.74R
MANHATTAN      CLEAR     40  34  79 S5        29.71R
OLATHE IND     CLEAR     38  33  82 SE5       29.73S
OLATHE EXE     CLEAR     38  33  82 SE10      29.73F WCI  31
SALINA         CLEAR     39  33  79 S7        29.69R
TOPEKA BILLARD CLEAR     41  34  76 S3        29.73R
TOPEKA FORBES  CLEAR     40  33  76 S8        29.72S
$$




USA.gov is the U.S. government's official web portal to all federal, state and local government web resources and services.